This is the latest recevied weather packets stored in our database for station/object WX2NJ-13. If no packets are shown the sender has not sent any weather packets the latest 1 day(s).
| Time | Temp. | Humidity | Pressure | Rain* | Wind** | Luminosity | Snow |
|---|---|---|---|---|---|---|---|
| 1778061520 | 15.56° C | 83% | 1011.4 hPa | 0 mm | 0.45 m/s, 188° | - | - |
| 1778061219 | 15.56° C | 83% | 1011.4 hPa | 0 mm | 1.34 m/s, 129° | - | - |
| 1778060920 | 15.56° C | 83% | 1011.3 hPa | 0 mm | 0 m/s | - | - |
| 1778060022 | 15.56° C | 84% | 1011.4 hPa | 0 mm | 0 m/s | - | - |
| 1778059723 | 15.56° C | 84% | 1011.4 hPa | 0 mm | 0.89 m/s, 148° | - | - |
| 1778059422 | 15.56° C | 84% | 1011.4 hPa | 0 mm | 0.89 m/s, 152° | - | - |
| 1778059123 | 15.56° C | 84% | 1011.5 hPa | 0 mm | 0 m/s | - | - |
| 1778058825 | 15.56° C | 84% | 1011.6 hPa | 0 mm | 1.34 m/s, 177° | - | - |
| 1778058225 | 15.56° C | 83% | 1011.7 hPa | 0 mm | 0 m/s | - | - |
| 1778057926 | 15.56° C | 84% | 1011.8 hPa | 0 mm | 0 m/s | - | - |
| 1778057625 | 15.56° C | 83% | 1011.7 hPa | 0 mm | 0.89 m/s, 180° | - | - |
| 1778056726 | 15.56° C | 83% | 1011.8 hPa | 0 mm | 0 m/s | - | - |
| 1778056129 | 16.11° C | 83% | 1011.8 hPa | 0 mm | 0.89 m/s, 136° | - | - |
| 1778055529 | 16.11° C | 82% | 1011.8 hPa | 0 mm | 0.45 m/s, 190° | - | - |
| 1778055230 | 16.11° C | 82% | 1011.8 hPa | 0 mm | 0.89 m/s, 156° | - | - |
| 1778054929 | 16.11° C | 82% | 1011.8 hPa | 0 mm | 0.89 m/s, 208° | - | - |
| 1778054630 | 16.11° C | 82% | 1011.9 hPa | 0 mm | 0 m/s | - | - |
| 1778054030 | 16.11° C | 81% | 1011.9 hPa | 0 mm | 1.34 m/s, 176° | - | - |
| 1778053433 | 16.11° C | 81% | 1011.9 hPa | 0 mm | 0.89 m/s, 184° | - | - |
| 1778052833 | 16.11° C | 81% | 1012 hPa | 0 mm | 0.89 m/s, 158° | - | - |
| 1778052534 | 16.11° C | 80% | 1012.1 hPa | 0 mm | 0 m/s | - | - |
| 1778052233 | 16.11° C | 80% | 1012.1 hPa | 0 mm | 1.34 m/s, 179° | - | - |
| 1778051934 | 16.11° C | 80% | 1012.1 hPa | 0 mm | 0 m/s | - | - |
| 1778051036 | 16.11° C | 80% | 1012.1 hPa | 0 mm | 0.89 m/s, 125° | - | - |
| 1778050737 | 16.11° C | 79% | 1012.1 hPa | 0 mm | 0.89 m/s, 193° | - | - |
* Rain latest hour (hover to see other rain measurements)
** Current wind speed in m/s (hover to see current wind gust speed)